STARLINK-11319, 61251

Orbit data source: Space-Track

STARLINK-11319, 61251 is a payload satellite owned by SpaceX/Seattle (US) in LEO that was launched on Wed, 25 Sep 2024 UTC via an FALCON 9 launch vehicle from the Air Force Western Test Range (AFWTR). Payload-class satellites include a variety of spacecraft equipped with specific instruments for various scientific and technological missions. These include communications satellites like Starlink; space stations such as the ISS; scientific satellites like the Hubble; Earth observation satellites from companies like Planet Labs, Umbra, and HawkEye 360; GPS; miniature CubeSats for education and research; and military/defense satellites.

Loading next visibility...
Identifier
61251, 2024-175J
Orbit
LEO
Last TLE update
5 hours ago
Origin
Manufacturer
SpaceX/Seattle
Mission
Operational Commercial Communications
Bus & Motor
STARLINK V2M, Unknown motor
Mass
730 kg wet, ~700 kg dry
Launch date (UTC)
2024-09-25 (9 months ago)
Launch vehicle
FALCON 9
Launch site
Air Force Western Test Range (AFWTR)
Object type
Payload
Rocket body
Debris
Shape & HBR
Box + 2 Pan, 29 m
Radar Cross Section
36.964 m², Large (>1 m²)

Expand to show TLE details & history

TLE from 5 hours ago
0 STARLINK-11319
1 61251U 24175J   25189.14433714  .00000716  00000-0  10773-4 0  9992
2 61251  53.1592 182.0945 0001298  74.8179 285.2982 15.69708327 46157
Epoch: 2025-07-08T03:27Z
TLE epoch observation values (Epoch: 2025-07-08T03:27:50.728Z)
Latitude
-0.00007°
Longitude
-156.21046°
Altitude
360.416 km
Speed
7.694 km/s
True Right ascension
12h 08m 22s
True Declination
0° 00' 00"
Sunlit
Object was in daylight at epoch
Visualization orbit readout
Latitude
50.56282°
Longitude
-92.28802°
Altitude
364.787 km
Speed
7.697 km/s
Apparent Right ascension
12h 00m 06s
Apparent Declination
13° 22' 28"
Sunlit
Object is in daylight
Visualization observer readout
Local Sidereal Time
20:27:30
Azimuth
305.327° NW
Elevation
-17.401°
Doppler factor
1
Orbital elements
Apogee altitude
360.867 km
Perigee altitude
359.118 km
Semi-major axis
6,738.129 km
Eccentricity
0.00013
Inclination
53.1592°
RAAN
182.0945°
Arg. of periapsis
74.8179°
True anomaly
Unknown
Mean anomaly
285.2982°
Eccentric anomaly
Unknown
Mean motion
3.92405 °/min
Orbital period
91.74 mins
BSTAR
0.000010773
Loading maneuver chart data...
Loading SW <> Apogee altitude chart data...
Loading historical data...
Loading historical data...
Loading historical data...
Loading historical data...
Loading historical data...
Loading historical data...
Loading historical data...

STARLINK-11319 Visibility forecast

Observer location: undefined°, undefined°

Span
Click to sort rows by Start time (UTC) header in descending order
Start Az.
Max El. time (UTC)
Max El. Az.
Max El.
End time (UTC)
End Az.
4 mins2025-07-08 08:30:48.131Z332.781° NNW2025-07-08 08:32:48.131Z18.105° NNE23.845°2025-07-08 08:34:48.131Z80.681° E
4 mins2025-07-09 02:35:48.131Z254.837° W2025-07-09 02:37:48.131Z349.561° N35.954°2025-07-09 02:39:48.131Z37.715° NE
|